Probability
0 0 0 0 0 0 0 0 0 0 0 0 0 0 0 0 0 0 0 0 0 0 0 0 0 0 0 0 0 0 0 0 0 0 0 0 0 0 0 0 0 0 0 0 0 0 0 0 0
0 0 0 0 0 0 0 0 0 0 0 0 0 0 0 0 0 0 0 0 0 0 0 0 0 0 0 0 0 0 0 0 0 0 0 0 0 0 0 0 0 0 0 0 0 0 0 0 0
0 0 0 0 0 0 0 0 0 0 0 0 0 0 0 0 0 0 0 0 0 0 0 0 0 0 0 0 0 0 0 0 0 0 0 0 0 0 0 0 0 0 0 0 0 0 0 0 0
0 0 0 0 0 0 0 0 0 0 0 0 0 0 0 0 0 0 0 0 0 0 0 0 0 0 0 0 0 0 0 0 0 0 0 0 0 0 0 0 0 0 0 0 0 0 0 0 0
0 0 0 0 0 0 0 0 0 0 0 0 0 0 0 0 0 0 0 0 0 0 0 0 0 0 0 0 0 0 0 0 0 0 0 0 0 0 0 0 0 0 0 0 0 0 0 0 0
0 0 0 0 0 0 0 0 0 0 0 0 0 0 0 0 0 0 0 0 0 0 0 0 0 0 0 0 0 0 0 0 0 0 0 0 0 0 0 0 0 0 0 0 0 0 0 0 0
0 0 0 0 0 0 0 0 0 0 0 0 0 0 0 0 0 0 0 0 0 0 0 0 0 0 0 0 0 0 0 0 0 0 0 0 0 0 0 0 0 0 0 0 0 0 0 0 0
0 0 0 0 0 0 0 0 0 0 0 0 0 0 0 0 0 0 0 0 0 0 0 0 0 0 0 0 0 0 0 0 0 0 0 0 0 0 0 0 0 0 0 0 0 0 0 0 0
0 0 0 0 0 0 0 0 0 0 0 0 0 0 0 0 0 0 0 0 0 0 0 0 0 0 0 0 0 0 0 0 0 0 0 0 0 0 0 0 0 0 0 0 0 0 0 0 0
0 0 0 0 0 0 0 0 0 0 0 0 0 0 0 0 0 0 0 0 0 0 0 0 0 0 0 0 0 0 0 0 0 0 0 0 0 0 0 0 0 0 0 0 0 0 0 0 0
0 0 0 0 0 0 0 0 0 0 0 0 0 0 0 0 0 0 0 0 0 0 0 0 0 0 0 0 0 0 0 0 0 0 0 0 0 0 0 0 0 0 0 0 0 0 0 0 0
0 0 0 0 0 0 0 0 0 0 0 0 0 0 0 0 0 0 0 0 0 0 0 0 0 0 0 0 0 0 0 0 0 0 0 0 0 0 0 0 0 0 0 0 0 0 0 0 0
0 0 0 0 0 0 0 0 0 0 0 0 0 0 0 0 0 0 0 0 0 0 0 0 0 0 0 0 0 0 0 0 0 0 0 0 0 0 0 0 0 0 0 0 0 0 0 0 0
0 0 0 0 0 0 0 0 0 0 0 0 0 0 0 0 0 0 0 0 0 0 0 0 0 0 0 0 0 0 0 0 0 0 0 0 0 0 0 0 0 0 0 0 0 0 0 0 0
0 0 0 0 0 0 0 0 0 0 0 0 0 0 0 0 0 0 0 0 0 0 0 0 0 0 0 0 0 0 0 0 0 0 0 0 0 0 0 0 0 0 0 0 0 0 0 0 0
0 0 0 0 0 0 0 0 0 0 0 0 0 0 0 0 0 0 0 0 0 0 0 0 0 0 0 0 0 0 0 0 0 0 0 0 0 0 0 0 0 0 0 0 0 0 0 0 0
0 0 0 0 0 0 0 0 0 0 0 0 0 0 0 0 0 0 0 0 0 0 0 0 0 0 0 0 0 0 0 0 0 0 0 0 0 0 0 0 0 0 0 0 0 0 0 0 0
0 0 0 0 0 0 0 0 0 0 0 0 0 0 0 0 0 0 0 0 0 0 0 0 0 0 0 0 0 0 0 0 0 0 0 0 0 0 0 0 0 0 0 0 0 0 0 0 0
0 0 0 0 0 0 0 0 0 0 0 0 0 0 0 0 0 0 0 0 0 0 0 0 0 0 0 0 0 0 0 0 0 0 0 0 0 0 0 0 0 0 0 0 0 0 0 0 0
0 0 0 0 0 0 0 0 0 0 0 0 0 0 0 0 0 0 0 0 0 0 0 0 0 0 0 0 0 0 0 0 0 0 0 0 0 0 0 0 0 0 0 0 0 0 0 0 0
0 0 0 0 0 0 0 0 0 0 0 0 0 0 0 0 0 0 0 0 0 0 0 0 0 0 0 0 0 0 0 0 0 0 0 0 0 0 0 0 0 0 0 0 0 0 0 0 0
0 0 0 0 0 0 0 0 0 0 0 0 0 0 0 0 0 0 0 0 0 0 0 0 0 0 0 0 0 0 0 0 0 0 0 0 0 0 0 0 0 0 0 0 0 0 0 0 0
0 0 0 0 0 0 0 0 0 0 0 0 0 0 0 0 0 0 0 0 0 0 0 0 0 0 0 0 0 0 0 0 0 0 0 0 0 0 0 0 0 0 0 0 0 0 0 0 0
0 0 0 0 0 0 0 0 0 0 0 0 0 0 0 0 0 0 0 0 0 0 0 0 0 0 0 0 0 0 0 0 0 0 0 0 0 0 0 0 0 0 0 0 0 0 0 0 0
0 0 0 0 0 0 0 0 0 0 0 0 0 0 0 0 0 0 0 0 0 0 0 0 0 0 0 0 0 0 0 0 0 0 0 0 0 0 0 0 0 0 0 0 0 0 0 0 0
0 0 0 0 0 0 0 0 0 0 0 0 0 0 0 0 0 0 0 0 0 0 0 0 0 0 0 0 0 0 0 0 0 0 0 0 0 0 0 0 0 0 0 0 0 0 0 0 0
0 0 0 0 0 0 0 0 0 0 0 0 0 0 0 0 0 0 0 0 0 0 0 0 0 0 0 0 0 0 0 0 0 0 0 0 0 0 0 0 0 0 0 0 0 0 0 0 0
0 0 0 0 0 0 0 0 0 0 0 0 0 0 0 0 0 0 0 0 0 0 0 0 0 0 0 0 0 0 0 0 0 0 0 0 0 0 0 0 0 0 0 0 0 0 0 0 0
0 0 0 0 0 0 0 0 0 0 0 0 0 0 0 0 0 0 0 0 0 0 0 0 0 0 0 0 0 0 0 0 0 0 0 0 0 0 0 0 0 0 0 0 0 0 0 0 0
0 0 0 0 0 0 0 0 0 0 0 0 0 0 0 0 0 0 0 0 0 0 0 0 0 0 0 0 0 0 0 0 0 0 0 0 0 0 0 0 0 0 0 0 0 0 0 0 0
Height
5887 5888 5889 5890 5891 5891 5890 5890 5890 5890 5890 5890 5890 5890 5890 5890 5891 5892 5889 5887 5886 5885 5884 5883 5882 5880 5879 5877 5876 5874 5872 5870 5868 5866 5865 5863 5861 5860 5858 5856 5855 5853 5852 5851 5849 5848 5847 5846 5846
5889 5890 5891 5892 5891 5891 5892 5891 5891 5891 5891 5891 5890 5890 5890 5889 5889 5888 5887 5886 5885 5884 5883 5881 5880 5878 5876 5875 5873 5871 5868 5866 5864 5862 5860 5858 5856 5854 5852 5850 5848 5847 5845 5844 5842 5841 5840 5838 5837
5892 5892 5893 5893 5893 5893 5893 5892 5892 5891 5891 5891 5890 5890 5889 5889 5888 5887 5886 5885 5884 5883 5881 5880 5878 5876 5874 5871 5869 5867 5864 5862 5859 5857 5855 5852 5850 5848 5845 5843 5841 5838 5836 5835 5833 5832 5830 5829 5828
5895 5896 5896 5895 5895 5895 5894 5893 5892 5892 5891 5891 5890 5890 5889 5888 5887 5886 5885 5883 5882 5881 5879 5878 5875 5873 5871 5868 5866 5863 5860 5858 5855 5852 5849 5846 5844 5841 5838 5835 5832 5830 5827 5825 5822 5820 5819 5817 5816
5898 5898 5897 5897 5896 5896 5895 5894 5893 5892 5891 5891 5890 5889 5888 5887 5885 5884 5883 5881 5880 5879 5877 5875 5872 5870 5867 5864 5862 5859 5856 5853 5850 5846 5843 5840 5837 5834 5830 5827 5824 5821 5817 5814 5811 5809 5806 5804 5802
5900 5899 5899 5898 5897 5896 5895 5894 5893 5892 5891 5889 5888 5887 5886 5885 5884 5882 5881 5879 5877 5876 5873 5871 5868 5865 5863 5860 5857 5853 5850 5847 5843 5840 5836 5833 5829 5825 5822 5818 5814 5810 5807 5803 5800 5796 5793 5790 5787
5901 5900 5899 5898 5897 5896 5895 5893 5892 5890 5889 5888 5886 5885 5884 5883 5882 5880 5879 5877 5874 5872 5869 5867 5864 5861 5858 5854 5851 5848 5844 5841 5837 5833 5829 5825 5821 5817 5812 5808 5804 5799 5795 5791 5786 5782 5777 5773 5768
5901 5900 5898 5897 5896 5895 5893 5892 5890 5888 5887 5886 5884 5883 5882 5881 5880 5878 5876 5874 5871 5869 5866 5863 5859 5856 5853 5849 5845 5842 5838 5834 5830 5826 5821 5817 5812 5807 5802 5797 5792 5787 5782 5777 5772 5766 5760 5754 5748
5900 5900 5897 5895 5893 5892 5891 5890 5888 5886 5885 5884 5882 5881 5880 5879 5877 5875 5873 5871 5868 5865 5862 5858 5855 5851 5847 5843 5839 5835 5831 5827 5822 5818 5813 5808 5803 5798 5792 5787 5781 5775 5769 5763 5757 5750 5742 5735 5726
5898 5897 5895 5893 5891 5890 5888 5887 5886 5884 5883 5881 5880 5879 5877 5876 5875 5873 5870 5867 5864 5860 5857 5854 5850 5846 5842 5838 5834 5829 5824 5819 5814 5809 5804 5798 5793 5788 5782 5776 5770 5763 5756 5749 5741 5733 5724 5714 5704
5896 5895 5893 5891 5889 5887 5886 5885 5883 5882 5880 5879 5878 5877 5875 5874 5872 5870 5867 5863 5860 5856 5853 5849 5845 5841 5837 5832 5827 5822 5817 5812 5806 5801 5795 5789 5783 5777 5771 5764 5757 5750 5743 5735 5726 5716 5705 5693 5680
5893 5892 5890 5889 5887 5885 5883 5882 5881 5879 5878 5877 5875 5874 5873 5871 5869 5866 5863 5860 5857 5853 5849 5844 5840 5836 5831 5826 5821 5816 5810 5804 5798 5792 5786 5780 5773 5767 5760 5753 5746 5738 5730 5720 5710 5698 5685 5671 5654
5891 5890 5888 5886 5884 5883 5881 5879 5878 5877 5875 5873 5872 5870 5869 5867 5866 5863 5860 5857 5853 5849 5845 5841 5836 5831 5826 5821 5815 5810 5804 5798 5791 5785 5778 5771 5764 5757 5750 5742 5734 5725 5716 5705 5693 5679 5663 5645 5626
5889 5887 5886 5884 5882 5880 5879 5877 5875 5875 5873 5871 5869 5867 5866 5864 5862 5860 5857 5853 5849 5845 5841 5837 5832 5827 5821 5816 5810 5804 5798 5791 5785 5778 5771 5763 5755 5747 5739 5730 5721 5711 5700 5688 5673 5657 5639 5618 5596
5887 5886 5884 5882 5880 5878 5876 5875 5873 5872 5870 5868 5867 5865 5863 5861 5859 5856 5853 5849 5845 5841 5837 5832 5827 5822 5816 5811 5805 5799 5792 5785 5778 5770 5762 5754 5745 5737 5728 5718 5707 5696 5683 5669 5652 5633 5611 5589 5567
5885 5884 5882 5880 5878 5876 5876 5873 5871 5869 5867 5866 5864 5862 5860 5858 5855 5853 5849 5846 5842 5838 5833 5828 5823 5817 5811 5806 5799 5792 5785 5778 5770 5761 5753 5744 5734 5725 5715 5704 5692 5680 5665 5649 5630 5608 5586 5562 5541
5883 5881 5879 5878 5876 5874 5872 5870 5869 5866 5865 5863 5861 5859 5857 5855 5852 5849 5846 5842 5838 5834 5829 5824 5818 5812 5806 5799 5793 5785 5778 5770 5761 5752 5743 5733 5723 5712 5701 5689 5677 5662 5646 5627 5606 5583 5559 5538 5517
5881 5879 5877 5875 5874 5872 5870 5868 5866 5864 5862 5861 5859 5857 5854 5851 5849 5845 5842 5839 5835 5830 5824 5818 5812 5806 5799 5792 5785 5777 5769 5761 5752 5742 5732 5722 5711 5699 5687 5674 5660 5644 5626 5605 5582 5559 5536 5514 5495
5878 5877 5875 5874 5872 5870 5868 5866 5864 5862 5860 5858 5856 5854 5851 5848 5845 5841 5838 5834 5829 5824 5818 5812 5806 5799 5793 5785 5777 5769 5760 5751 5742 5732 5721 5710 5698 5686 5673 5658 5643 5625 5606 5584 5561 5538 5517 5496 5475
5875 5874 5872 5870 5868 5867 5865 5864 5862 5860 5858 5856 5853 5851 5848 5844 5841 5837 5833 5829 5824 5818 5813 5806 5800 5793 5785 5778 5769 5760 5751 5742 5732 5721 5710 5698 5685 5672 5658 5643 5626 5607 5586 5564 5541 5519 5498 5479 5457
5871 5870 5868 5867 5865 5863 5862 5861 5859 5857 5854 5852 5850 5847 5844 5841 5837 5833 5828 5824 5818 5813 5807 5800 5793 5786 5778 5769 5761 5752 5742 5732 5722 5710 5698 5685 5672 5658 5643 5627 5609 5589 5568 5546 5523 5502 5481 5464 5445
5867 5865 5864 5862 5861 5859 5858 5857 5855 5853 5850 5848 5846 5843 5840 5836 5832 5828 5823 5818 5812 5807 5800 5793 5786 5778 5770 5761 5752 5743 5733 5723 5712 5699 5686 5673 5659 5644 5628 5611 5593 5573 5551 5529 5507 5487 5467 5448 5431
5862 5860 5859 5857 5855 5855 5853 5851 5851 5848 5845 5843 5841 5838 5835 5831 5827 5822 5817 5812 5806 5800 5793 5786 5778 5770 5762 5753 5744 5734 5724 5713 5701 5689 5675 5661 5646 5631 5614 5597 5578 5558 5536 5515 5494 5474 5454 5435 5417
5857 5856 5854 5852 5850 5850 5848 5845 5846 5843 5841 5838 5836 5832 5829 5825 5821 5816 5811 5805 5799 5792 5785 5778 5770 5762 5753 5745 5735 5725 5715 5703 5691 5678 5665 5650 5635 5618 5601 5583 5564 5544 5523 5502 5482 5463 5444 5426 5408
5853 5851 5848 5846 5844 5844 5841 5839 5841 5838 5835 5833 5830 5826 5823 5819 5814 5809 5804 5798 5791 5784 5777 5770 5762 5754 5745 5736 5727 5717 5706 5694 5681 5668 5654 5639 5623 5607 5589 5571 5552 5532 5512 5492 5472 5454 5435 5417 5400
5847 5845 5843 5840 5838 5837 5834 5832 5836 5832 5829 5826 5823 5820 5816 5811 5807 5802 5797 5791 5784 5777 5770 5762 5754 5746 5737 5728 5718 5708 5696 5685 5672 5659 5645 5629 5613 5596 5579 5561 5542 5522 5502 5482 5463 5445 5427 5410 5393
5841 5839 5836 5833 5829 5828 5827 5827 5828 5826 5822 5819 5816 5813 5809 5804 5799 5795 5789 5783 5776 5769 5762 5754 5746 5738 5729 5719 5709 5698 5687 5675 5663 5650 5635 5620 5604 5587 5569 5551 5532 5513 5493 5474 5455 5438 5420 5403 5386
5835 5832 5830 5826 5822 5819 5819 5819 5821 5819 5815 5812 5809 5805 5801 5796 5791 5786 5781 5775 5768 5761 5753 5745 5737 5729 5720 5710 5700 5689 5678 5666 5654 5640 5626 5611 5595 5578 5560 5542 5523 5504 5485 5466 5449 5431 5414 5397 5381
5829 5826 5822 5818 5815 5811 5808 5813 5814 5812 5808 5804 5800 5795 5791 5787 5782 5777 5772 5766 5759 5752 5744 5736 5728 5719 5710 5700 5690 5680 5669 5657 5645 5632 5617 5602 5586 5569 5551 5534 5516 5497 5478 5460 5443 5426 5409 5393 5377
5821 5819 5815 5812 5808 5803 5798 5803 5808 5804 5799 5794 5790 5785 5781 5778 5774 5768 5763 5757 5750 5743 5735 5727 5718 5709 5700 5691 5681 5671 5660 5648 5636 5623 5608 5593 5577 5561 5544 5526 5508 5490 5472 5454 5437 5421 5405 5389 5374
Wind_Speed
6 5 5 5 6 7 8 9 10 10 11 11 10 9 7 7 6 6 6 7 8 8 9 9 10 11 12 13 15 17 19 21 23 24 25 27 28 29 30 31 32 33 34 36 37 38 40 41 42
10 9 9 9 9 10 10 11 11 10 9 8 7 6 6 6 6 7 8 8 9 9 9 10 11 13 14 16 19 21 23 24 26 27 28 29 29 30 31 33 34 35 36 37 39 40 42 43 45
13 13 13 12 11 11 11 10 10 8 7 6 5 5 5 6 7 8 9 9 9 10 11 12 14 16 18 20 22 24 25 26 27 28 29 30 30 32 33 35 36 38 39 41 42 44 45 47 48
14 14 13 12 11 10 9 8 7 5 4 4 4 5 6 7 8 9 10 10 10 11 13 15 17 19 21 23 24 26 27 27 28 29 30 31 33 34 36 37 39 41 43 45 47 48 50 51 53
12 11 11 9 7 7 6 5 4 3 3 4 6 7 8 9 9 10 11 12 12 13 15 17 20 21 23 25 26 27 27 28 29 30 32 33 35 37 39 41 43 45 47 49 51 53 54 56 58
9 7 6 4 3 3 3 3 3 4 6 7 8 8 9 10 10 11 13 14 15 17 19 21 23 25 26 27 27 28 29 30 31 33 34 36 38 40 42 44 46 48 51 53 55 57 60 62 64
4 3 2 3 4 4 5 6 7 7 8 9 10 10 10 11 11 13 14 16 18 20 22 24 25 26 27 28 29 30 31 33 34 36 37 39 41 43 45 48 50 52 55 57 60 63 66 68 71
3 3 4 6 8 8 8 9 9 10 9 10 11 11 11 12 13 14 16 18 20 22 24 25 26 27 28 29 30 32 33 35 37 39 41 43 45 47 49 51 53 56 59 62 65 68 71 75 78
8 8 9 10 11 11 11 10 10 10 10 10 11 12 12 13 14 16 18 20 21 23 24 25 26 27 29 30 32 34 36 38 40 42 44 46 47 49 51 54 56 59 62 66 69 73 76 80 85
12 12 12 12 12 12 11 10 10 10 10 11 12 12 13 14 15 17 19 20 21 22 23 24 26 28 30 32 34 36 38 40 43 45 46 48 50 51 54 56 59 62 66 69 73 77 81 86 91
12 11 11 11 11 10 10 8 9 10 10 11 12 12 14 15 16 17 18 19 20 22 23 25 27 29 32 34 36 38 40 43 45 47 48 50 52 54 56 59 62 65 68 72 76 81 86 91 97
11 9 8 8 8 9 9 9 9 10 11 11 12 13 13 14 14 15 16 17 19 21 23 25 27 30 33 35 37 39 42 44 46 48 50 51 53 55 58 60 63 67 70 75 79 84 89 96 101
9 9 8 8 8 8 9 10 10 10 11 12 13 12 12 12 12 13 15 16 18 20 23 25 28 31 33 35 37 39 41 43 45 47 49 51 53 56 59 61 64 68 72 77 82 87 93 99 103
9 9 8 8 8 8 9 10 10 9 10 10 11 11 10 11 11 12 14 16 18 21 24 27 29 31 33 35 37 39 41 43 45 47 49 50 53 56 59 62 65 70 74 79 85 91 96 100 101
9 8 8 8 8 8 9 9 9 8 8 8 8 8 8 9 10 12 14 17 20 23 26 28 30 32 34 35 38 40 41 43 46 48 49 51 54 56 59 63 67 71 76 82 88 94 97 98 95
9 8 8 8 8 8 9 10 8 7 6 6 6 6 7 8 11 13 16 19 22 25 27 30 31 33 34 36 38 40 43 45 47 50 51 53 55 57 61 64 69 73 79 85 91 95 95 93 89
9 9 9 8 8 8 8 8 7 6 5 5 5 6 7 9 11 13 16 19 22 25 28 30 32 34 35 38 40 42 44 47 50 52 54 55 57 60 63 66 71 76 81 88 92 94 92 88 83
9 9 10 10 9 9 8 7 7 6 5 5 6 7 8 9 11 13 16 18 21 25 28 31 34 36 38 40 42 44 46 49 52 55 57 59 60 62 65 69 73 78 84 89 92 90 87 83 80
11 10 11 11 10 9 8 8 7 6 6 6 7 8 9 10 12 14 16 19 22 26 30 33 35 38 41 43 45 47 49 52 55 58 60 62 63 65 67 71 75 81 86 90 90 87 83 79 78
14 13 13 12 11 11 10 9 9 9 9 9 9 10 10 11 13 15 17 21 24 28 31 34 37 40 43 46 48 50 52 54 57 60 63 65 66 68 70 73 78 83 87 89 87 84 80 77 76
17 16 14 14 14 14 13 12 12 12 12 12 12 12 12 12 14 17 20 23 26 29 32 35 38 41 45 48 51 53 55 57 59 62 66 68 69 70 72 75 80 84 87 87 84 81 78 75 73
18 18 17 16 17 16 16 16 15 15 15 15 16 15 15 15 17 19 22 26 29 31 34 37 40 43 46 49 53 55 57 59 61 64 67 70 71 72 74 77 81 85 86 85 81 78 76 75 72
20 20 20 19 20 20 19 19 17 18 18 18 19 19 18 19 20 23 26 29 32 34 37 40 42 45 48 50 54 57 59 61 63 65 68 71 73 74 75 78 82 84 85 82 78 75 74 73 71
22 23 23 23 23 22 22 23 20 20 21 21 22 22 23 23 25 27 29 32 35 38 40 42 44 47 49 52 54 57 60 63 64 67 69 72 74 75 77 79 82 84 83 79 76 73 72 71 69
23 25 26 27 26 25 25 26 21 23 24 24 25 25 26 27 28 30 32 35 37 40 42 44 46 48 51 53 55 58 61 63 66 68 70 73 75 76 77 79 82 83 81 77 74 71 70 69 67
25 26 28 31 30 29 29 29 23 25 26 26 27 28 30 31 31 32 34 37 40 42 45 46 48 50 52 54 56 58 61 64 66 69 71 73 76 77 78 79 81 81 79 75 72 70 68 67 65
27 28 31 34 35 34 33 31 27 27 28 29 30 31 32 33 34 35 37 39 42 44 47 49 50 52 53 55 57 58 61 63 66 69 72 74 76 77 78 79 80 80 78 74 70 68 67 66 63
29 30 32 35 38 39 37 34 29 27 30 32 33 34 35 36 37 38 40 42 44 47 49 51 52 54 55 56 57 59 61 63 66 69 72 74 76 78 78 79 80 79 76 72 69 67 65 64 62
30 31 33 36 39 42 42 36 31 31 33 35 36 37 39 39 40 42 43 44 47 49 51 53 54 56 56 57 58 59 61 62 66 69 72 74 76 77 78 78 79 78 75 72 68 65 64 62 60
31 31 34 37 40 43 46 39 31 34 36 38 39 41 43 42 43 44 45 47 49 51 53 55 56 57 58 57 58 59 61 62 65 68 71 74 76 77 78 78 78 77 74 71 67 64 63 61 59
Wind_Direction
121 127 125 129 128 125 119 115 111 107 104 102 98 91 79 65 51 26 8 358 351 346 342 338 333 328 324 320 318 316 314 312 310 308 306 304 302 301 299 298 297 296 295 295 294 293 291 290 288
102 102 104 107 111 114 111 108 104 101 97 91 83 73 57 38 17 1 352 347 342 340 337 333 328 324 321 318 316 314 312 311 309 307 305 304 303 303 302 301 299 298 297 296 294 293 292 290 288
98 100 100 103 109 108 105 102 99 93 84 72 58 38 23 7 351 343 339 336 333 331 329 326 323 319 317 315 314 312 311 309 307 306 305 304 304 304 304 303 302 301 300 298 297 295 293 291 288
99 101 102 105 109 104 100 95 89 78 60 36 14 359 353 344 334 330 328 325 324 322 320 318 316 314 312 311 310 309 309 308 307 306 305 305 305 306 305 305 303 302 301 300 299 297 295 293 291
96 97 98 101 100 97 93 79 61 30 360 344 336 332 331 327 322 319 318 317 317 316 314 313 312 310 309 309 308 308 308 308 307 307 306 306 306 306 306 305 304 303 302 301 299 298 296 293 290
97 93 91 75 61 58 44 8 342 329 323 321 319 318 319 315 311 310 311 313 314 313 313 312 312 311 311 310 310 309 309 309 309 308 308 307 307 307 306 305 304 303 302 301 300 298 296 295 292
75 65 45 340 329 332 330 323 317 314 312 308 308 310 312 308 306 307 309 311 312 312 313 313 313 313 313 313 312 311 310 310 310 309 309 308 308 307 306 306 305 304 303 302 301 300 299 297 295
345 326 311 306 310 313 313 312 310 309 308 298 298 303 304 304 304 305 307 309 311 312 313 314 314 315 315 315 314 313 312 311 310 310 310 309 308 308 308 307 306 305 305 304 303 302 301 300 298
314 308 304 304 306 307 307 306 304 303 300 295 295 299 301 302 304 306 309 311 312 314 315 317 318 319 319 318 317 316 315 313 312 311 310 310 309 308 308 307 307 306 305 305 304 303 303 302 300
301 299 299 300 302 303 304 304 301 299 297 294 294 297 300 303 307 310 312 313 315 317 320 322 324 324 323 322 321 319 317 316 314 313 312 310 310 309 308 308 307 306 306 305 305 305 304 303 302
295 294 293 293 297 299 300 302 300 297 297 294 294 297 301 306 311 314 315 317 320 323 326 328 328 328 327 325 324 322 320 318 316 314 313 311 310 309 309 308 308 307 307 307 306 306 305 304 303
296 296 294 293 295 298 300 303 302 299 298 297 298 301 306 312 316 318 320 323 325 328 332 333 333 331 330 328 327 325 323 320 318 315 313 312 310 309 309 308 308 308 308 308 307 307 306 305 304
294 293 292 293 297 299 302 305 306 304 303 303 306 311 316 319 322 325 327 329 332 335 336 336 335 333 332 331 329 327 325 323 320 317 315 313 311 310 309 309 309 309 309 309 309 309 308 307 305
289 290 291 294 297 300 302 305 307 306 305 307 312 318 323 326 331 335 337 338 339 340 339 337 335 334 334 333 332 331 329 327 324 321 318 315 313 312 312 311 311 311 312 312 312 311 311 309 307
284 284 288 294 298 301 306 309 314 313 314 316 318 324 330 336 342 344 344 343 341 339 336 334 334 335 335 335 334 333 333 331 329 327 323 320 317 315 314 314 314 314 314 314 315 315 314 312 310
279 282 287 293 301 304 307 313 325 322 322 325 328 334 340 344 346 345 344 342 340 338 336 334 334 335 335 335 335 335 335 335 334 332 329 325 322 319 317 317 316 317 317 318 318 318 317 315 312
277 279 288 295 301 304 305 308 319 321 321 326 331 334 339 343 343 343 343 342 341 339 338 338 337 337 337 336 336 336 336 337 336 335 333 329 326 323 321 320 319 320 320 321 322 322 320 317 315
271 275 282 288 292 295 297 297 303 307 311 316 318 321 328 332 335 338 341 343 343 342 342 342 341 340 339 338 337 336 337 337 337 336 335 333 330 326 324 323 322 323 324 325 325 324 322 319 318
271 268 265 270 276 282 286 286 288 291 296 300 304 308 315 321 328 334 339 343 345 346 345 345 344 343 342 340 339 337 337 337 337 337 336 335 332 330 327 326 326 327 328 328 328 327 324 322 320
265 262 261 265 270 274 277 279 281 284 289 292 294 299 306 314 321 329 336 340 343 345 345 345 344 343 343 342 341 340 338 337 336 337 337 336 334 332 330 329 329 330 331 331 330 329 327 325 324
263 263 264 266 268 270 273 276 280 281 285 288 290 293 300 310 318 325 332 336 339 341 343 343 343 343 342 342 341 340 339 337 336 336 337 337 336 334 333 332 332 333 334 334 332 330 329 328 327
266 265 266 267 268 269 272 274 279 281 283 285 288 292 299 307 315 322 327 331 335 337 339 341 342 342 341 341 340 340 339 338 337 337 337 337 337 336 335 334 335 336 336 335 334 332 331 331 331
270 268 267 267 267 268 272 274 277 281 283 286 288 293 299 305 312 318 323 327 331 334 336 338 339 340 340 339 339 339 338 338 337 337 337 337 338 337 336 336 337 338 338 337 335 333 333 333 333
272 270 268 266 266 267 269 273 278 281 282 285 288 294 299 305 310 315 319 324 327 330 333 335 336 337 338 338 337 337 337 337 338 338 338 338 338 338 338 338 339 340 340 338 337 335 335 335 335
274 272 270 268 267 268 268 271 278 278 282 284 288 294 299 303 308 313 317 321 325 327 329 331 333 334 335 336 336 336 336 337 338 338 338 338 339 339 339 339 340 341 341 340 338 337 337 337 337
275 273 271 271 270 268 267 271 278 278 282 284 288 293 297 301 306 310 314 318 321 324 326 328 330 331 332 333 334 334 334 336 337 338 338 339 340 340 340 341 342 342 342 341 340 339 339 339 338
278 273 271 271 271 270 269 273 275 278 281 284 288 291 295 299 303 307 311 314 318 321 323 325 327 328 330 331 332 332 333 335 336 338 338 339 340 341 341 342 343 344 343 342 341 341 340 340 340
280 278 274 272 273 273 273 273 276 274 277 282 286 288 292 296 300 304 308 312 315 318 320 322 324 326 327 329 330 331 332 333 336 337 338 339 340 341 342 342 344 345 344 343 342 342 342 342 341
281 281 279 277 276 277 278 276 276 275 278 282 284 286 289 293 298 302 306 310 313 315 318 320 322 323 325 326 328 329 330 332 334 337 338 339 340 341 342 343 344 346 345 344 343 343 343 343 342
282 281 280 279 278 278 280 284 279 277 279 282 283 285 288 292 296 300 304 307 310 313 315 317 319 321 323 324 326 327 328 330 333 336 338 339 340 341 342 343 345 346 346 345 345 344 345 344 344